Weather History for South Haven, MI

Change the Weather History Date:

Monday, December 30, 2013

  Actual Average (KBIV) Record (KBIV)
Temperature  
Mean Temperature 19 °F 28 °F  
Max Temperature 22 °F 33 °F 55 °F (2002)
Min Temperature 16 °F 23 °F -6 °F (1970)
Degree Days  
Heating Degree Days 46 37  
Month to date heating degree days 1008  
Since 1 July heating degree days 2231  
Cooling Degree Days 0 0  
Month to date cooling degree days 0  
Year to date cooling degree days 693  
Moisture  
Dew Point 11 °F    
Average Humidity 73    
Maximum Humidity 86    
Minimum Humidity 63    
Precipitation  
Precipitation 0.00 in 0.06 in 0.77 in (1971)
Month to date precipitation 2.24  
Year to date precipitation 36.40  
Sea Level Pressure  
Sea Level Pressure 30.17 in    
Wind  
Wind Speed 8 mph (WNW)    
Max Wind Speed 13 mph    
Max Gust Speed 18 mph    
Visibility 8 miles    
Events Snow    
T = Trace of Precipitation, MM = Missing Value Source: NWS Daily Summary

Daily Weather History Graph

Daily Weather History Graph

Search for Another Location

Airport:

Trip Planner

Search our weather history database for the weather conditions in past years. The results will help you decide how hot, cold, wet, or windy it might be!

Date:

Astronomy

Dec. 30, 2013 Rise Set
Actual Time 8:14 AM EST 5:21 PM EST
Civil Twilight 7:42 AM EST 5:53 PM EST
Nautical Twilight 7:06 AM EST 6:28 PM EST
Astronomical Twilight 6:32 AM EST 7:02 PM EST
Moon 6:02 AM EST (12/30) 3:55 PM EST (12/30)
Length of Visible Light 10h 11m
Length of Day
9h 07m
Waning Crescent, 5% of the Moon is Illuminated
Dec 30
Waning Crescent
Jan 1
New
Jan 7
First Quarter
Jan 15
Full
Jan 24
Last Quarter

Hourly Weather History & Observations

Time (EST) Temp. Windchill Dew Point Humidity Pressure Visibility Wind Dir Wind Speed Gust Speed Precip Events Conditions
12:15 AM 22.5 °F 12.4 °F 13.5 °F 68% 30.07 in 10.0 mi NNW 9.2 mph - N/A Snow Light Snow
12:35 AM 22.1 °F 10.0 °F 12.9 °F 68% 30.08 in 10.0 mi NW 12.7 mph 18.4 mph N/A Snow Light Snow
12:55 AM 22.1 °F 10.6 °F 12.7 °F 67% 30.08 in 10.0 mi NW 11.5 mph - N/A   Overcast
1:15 AM 21.7 °F 10.8 °F 11.3 °F 64% 30.08 in 10.0 mi NW 10.4 mph - N/A   Overcast
1:35 AM 21.7 °F 10.8 °F 11.7 °F 65% 30.09 in 10.0 mi NW 10.4 mph - N/A Snow Light Snow
1:55 AM 21.6 °F 11.3 °F 11.1 °F 64% 30.10 in 10.0 mi NW 9.2 mph - N/A Snow Light Snow
2:15 AM 21.2 °F 8.9 °F 11.5 °F 66% 30.11 in 10.0 mi NW 12.7 mph 17.3 mph N/A Snow Light Snow
2:35 AM 21.0 °F 10.6 °F 10.4 °F 64% 30.12 in 10.0 mi NW 9.2 mph - N/A Snow Light Snow
2:55 AM 20.8 °F 11.2 °F 10.0 °F 63% 30.13 in 10.0 mi NNW 8.1 mph - N/A   Overcast
3:14 AM 20.3 °F 11.5 °F 10.0 °F 65% 30.14 in 7.0 mi NW 6.9 mph - N/A Snow Light Snow
3:35 AM 20.3 °F 9.8 °F 10.2 °F 65% 30.14 in 10.0 mi North 9.2 mph - N/A Snow Light Snow
3:55 AM 19.9 °F 10.1 °F 11.3 °F 69% 30.15 in 10.0 mi NNW 8.1 mph - N/A Snow Light Snow
4:14 AM 19.8 °F 10.8 °F 10.8 °F 68% 30.15 in 10.0 mi WNW 6.9 mph - N/A Snow Light Snow
4:35 AM 19.9 °F 10.1 °F 11.7 °F 70% 30.15 in 10.0 mi NNW 8.1 mph - N/A Snow Light Snow
4:55 AM 19.6 °F 13.0 °F 10.2 °F 67% 30.15 in 10.0 mi North 4.6 mph - N/A Snow Light Snow
5:14 AM 19.8 °F 10.8 °F 10.6 °F 68% 30.14 in 10.0 mi North 6.9 mph - N/A Snow Light Snow
5:35 AM 19.4 °F 11.5 °F 10.9 °F 70% 30.15 in 7.0 mi North 5.8 mph - N/A Snow Light Snow
5:55 AM 19.4 °F 12.8 °F 10.2 °F 68% 30.17 in 10.0 mi NNW 4.6 mph - N/A Snow Light Snow
6:14 AM 19.9 °F 13.4 °F 10.2 °F 66% 30.17 in 10.0 mi NNW 4.6 mph - N/A   Overcast
6:35 AM 19.9 °F 11.1 °F 11.5 °F 70% 30.17 in 5.0 mi NW 6.9 mph - N/A Snow Light Snow
6:54 AM 19.9 °F 14.9 °F 11.1 °F 69% 30.19 in 10.0 mi NNW 3.5 mph - N/A Snow Light Snow
7:15 AM 19.9 °F 11.1 °F 12.0 °F 71% 30.19 in 7.0 mi WNW 6.9 mph - N/A Snow Light Snow
7:35 AM 19.4 °F 10.4 °F 12.2 °F 74% 30.20 in 7.0 mi NNW 6.9 mph - N/A Snow Light Snow
7:54 AM 18.5 °F 11.7 °F 12.9 °F 79% 30.20 in 10.0 mi NE 4.6 mph - N/A   Overcast
8:15 AM 17.6 °F 10.7 °F 12.4 °F 80% 30.21 in 10.0 mi NE 4.6 mph - N/A   Overcast
8:35 AM 17.2 °F 10.2 °F 12.2 °F 81% 30.22 in 7.0 mi East 4.6 mph - N/A Snow Light Snow
8:54 AM 17.4 °F 12.1 °F 12.4 °F 81% 30.22 in 7.0 mi East 3.5 mph - N/A Snow Light Snow
9:15 AM 17.6 °F - 12.9 °F 82% 30.24 in 4.0 mi Calm Calm - N/A Snow Light Snow
9:35 AM 17.6 °F - 13.3 °F 83% 30.24 in 1.8 mi Calm Calm - N/A Snow Light Snow
9:55 AM 17.6 °F - 13.6 °F 84% 30.24 in 3.0 mi Calm Calm - N/A Snow Light Snow
10:15 AM 18.0 °F - 14.0 °F 84% 30.25 in 3.0 mi Calm Calm - N/A Snow Light Snow
10:35 AM 19.6 °F 10.6 °F 12.0 °F 72% 30.25 in 7.0 mi West 6.9 mph - N/A Snow Light Snow
10:55 AM 19.6 °F 8.9 °F 10.9 °F 69% 30.26 in 7.0 mi West 9.2 mph - N/A Snow Light Snow
11:15 AM 19.6 °F 7.4 °F 11.1 °F 70% 30.25 in 10.0 mi West 11.5 mph - N/A   Overcast
11:35 AM 19.4 °F 9.5 °F 10.9 °F 70% 30.25 in 10.0 mi West 8.1 mph - N/A Snow Light Snow
11:55 AM 19.4 °F 8.6 °F 10.2 °F 68% 30.25 in 10.0 mi West 9.2 mph - N/A   Overcast
12:15 PM 19.0 °F 10.0 °F 11.5 °F 72% 30.24 in 2.5 mi West 6.9 mph - N/A Snow Light Snow
12:34 PM 18.9 °F 8.0 °F 11.7 °F 74% 30.23 in 3.0 mi West 9.2 mph 18.4 mph N/A Snow Light Snow
12:55 PM 18.5 °F 5.5 °F 10.2 °F 70% 30.23 in 7.0 mi West 12.7 mph 16.1 mph N/A Snow Light Snow
1:14 PM 17.6 °F 5.0 °F 10.2 °F 73% 30.22 in 7.0 mi WSW 11.5 mph - N/A Snow Light Snow
1:35 PM 17.4 °F 9.1 °F 9.3 °F 71% 30.20 in 10.0 mi West 5.8 mph - N/A Snow Light Snow
1:55 PM 17.6 °F 7.3 °F 8.8 °F 68% 30.21 in 10.0 mi WSW 8.1 mph - N/A   Mostly Cloudy
2:14 PM 17.2 °F 5.2 °F 9.0 °F 70% 30.20 in 10.0 mi WSW 10.4 mph - N/A   Mostly Cloudy
2:35 PM 17.2 °F 6.8 °F 8.4 °F 68% 30.19 in 10.0 mi West 8.1 mph - N/A Snow Light Snow
2:55 PM 17.4 °F 6.2 °F 8.6 °F 68% 30.19 in 10.0 mi West 9.2 mph - N/A Snow Light Snow
3:14 PM 17.1 °F 7.6 °F 8.6 °F 69% 30.17 in 10.0 mi WSW 6.9 mph - N/A   Overcast
3:35 PM 17.2 °F 6.8 °F 10.0 °F 73% 30.18 in 5.0 mi WSW 8.1 mph - N/A Snow Light Snow
3:54 PM 17.4 °F 12.1 °F 10.4 °F 74% 30.19 in 5.0 mi WSW 3.5 mph - N/A Snow Light Snow
4:15 PM 17.6 °F 12.3 °F 10.9 °F 75% 30.19 in 7.0 mi SW 3.5 mph - N/A Snow Light Snow
4:35 PM 17.6 °F - 12.0 °F 79% 30.19 in 2.5 mi Calm Calm - N/A Snow Light Snow
4:54 PM 17.4 °F 10.4 °F 13.1 °F 83% 30.19 in 3.0 mi South 4.6 mph - N/A Snow Light Snow
5:15 PM 16.7 °F 11.2 °F 13.1 °F 86% 30.19 in 1.8 mi South 3.5 mph - N/A Snow Light Snow
5:35 PM 16.7 °F 11.2 °F 12.7 °F 84% 30.19 in 7.0 mi South 3.5 mph - N/A Snow Light Snow
5:54 PM 16.7 °F - 12.7 °F 84% 30.17 in 10.0 mi Calm Calm - N/A   Overcast
6:15 PM 16.9 °F - 13.1 °F 85% 30.17 in 7.0 mi Calm Calm - N/A Snow Light Snow
6:35 PM 17.1 °F - 13.1 °F 84% 30.17 in 5.0 mi Calm Calm - N/A Snow Light Snow
6:54 PM 17.2 °F 10.2 °F 13.1 °F 84% 30.17 in 7.0 mi SSW 4.6 mph - N/A Snow Light Snow
7:15 PM 18.1 °F 7.9 °F 10.9 °F 73% 30.16 in 10.0 mi WSW 8.1 mph - N/A   Overcast
7:34 PM 18.1 °F 8.9 °F 10.4 °F 72% 30.16 in 10.0 mi West 6.9 mph - N/A   Overcast
7:55 PM 18.1 °F 7.9 °F 9.9 °F 70% 30.16 in 10.0 mi West 8.1 mph - N/A   Overcast
8:15 PM 18.0 °F 7.7 °F 9.3 °F 69% 30.16 in 10.0 mi West 8.1 mph - N/A   Overcast
8:34 PM 18.0 °F 9.8 °F 9.0 °F 68% 30.15 in 10.0 mi WSW 5.8 mph - N/A   Overcast
8:55 PM 18.0 °F 8.7 °F 8.6 °F 67% 30.15 in 10.0 mi West 6.9 mph - N/A   Overcast
9:15 PM 18.0 °F 7.7 °F 8.6 °F 67% 30.15 in 10.0 mi WSW 8.1 mph - N/A   Overcast
9:34 PM 18.0 °F 8.7 °F 8.1 °F 65% 30.14 in 10.0 mi WSW 6.9 mph - N/A   Overcast
9:55 PM 17.4 °F 8.0 °F 11.1 °F 76% 30.14 in 4.0 mi West 6.9 mph - N/A Snow Light Snow
10:15 PM 17.6 °F 6.4 °F 11.3 °F 76% 30.13 in 4.0 mi WSW 9.2 mph - N/A Snow Light Snow
10:35 PM 17.4 °F 6.2 °F 12.7 °F 82% 30.14 in 2.0 mi West 9.2 mph - N/A Snow Light Snow
10:55 PM 17.4 °F 8.0 °F 13.5 °F 84% 30.13 in 1.5 mi West 6.9 mph - N/A Snow Light Snow
11:15 PM 17.4 °F 7.1 °F 13.5 °F 84% 30.13 in 1.5 mi West 8.1 mph 16.1 mph N/A Snow Light Snow
11:35 PM 17.2 °F 6.0 °F 12.4 °F 81% 30.13 in 2.0 mi West 9.2 mph - N/A Snow Light Snow
11:55 PM 17.2 °F 6.0 °F 12.9 °F 83% 30.13 in 2.0 mi West 9.2 mph - N/A Snow Light Snow